{"data":{"norad_id":65045,"intl_designator":"2025-162C","name":"HULIANWANG DIGUI-42","alt_names":[],"object_type":"PAYLOAD","status":"ACTIVE","operator":null,"country":"PRC","launch_date":"2025-07-30","launch_site_code":"WSC","launch_vehicle":null,"mission":null,"orbit_class":"UNKNOWN","rcs_meters":null,"size_class":null,"mass_kg":null,"dimensions":null,"purposes":[],"wikipedia_slug":null,"has_3d_model":false,"image_url":null,"decayed_at":null,"tle_current":{"epoch":"2026-09-21T12:42:26.617536Z","epoch_age_seconds":79294,"freshness":"FRESH","line1":"1 65045U 25162C   26264.52947474 -.00000086  00000+0  81089-4 0  9992","line2":"2 65045  49.9965 280.1470 0000760 286.8252  73.2536 13.29325577 56171","mean_motion":13.29325577,"eccentricity":7.6e-5,"inclination_deg":49.9965,"raan_deg":280.147,"arg_perigee_deg":286.8252,"mean_anomaly_deg":73.2536,"bstar":8.1089e-5,"rev_number":5617,"period_min":108.32560697807,"perigee_km":1148.736082875,"apogee_km":1149.8802545407,"semimajor_km":7527.4451687079,"source":"CELESTRAK","updated_at":"2026-09-22T09:00:30.090457Z"}}}